DMSP 5D-2 F13 DEB, 40442

Orbit data source: Space-Track

DMSP 5D-2 F13 DEB, 40442 is space debris in SSO originally from a launch on Fri, 24 Mar 1995 UTC launched from the Air Force Western Test Range (AFWTR). Debris objects in space refer to the collection of defunct objects orbiting the Earth. Examples of debris include non-operational satellites, rocket bodies, and fragments generated from explosions, collisions, or faulty payload assembly.

Loading next visibility...
Identifier
40442, 1995-015AU
Orbit
SSO
Country
Flag of USUS
Related business
Manufacturer
Unknown
Mission
Spacecraft
Bus & Motor
Unknown
Mass
Unknown
Launch date (UTC)
1995-03-24 (31 years ago)
Launch vehicle
Unknown
Launch site
Air Force Western Test Range (AFWTR)
Object type
Payload
Rocket body
Debris
Shape & HBR
Unknown shape, 0.2 m
Radar Cross Section
Small (<0.1 m²)

Expand to show TLE details & history
Last TLE update: 14 hours ago

TLE from 14 hours ago
0 DMSP 5D-2 F13 DEB
1 40442U 95015AU  25343.26151875  .00000196  00000-0  12433-3 0  9998
2 40442  98.8601 353.0865 0011940  76.4808 283.7695 14.14946643556082
Epoch: 2025-12-09T06:16Z
TLE epoch observation values (Epoch: 2025-12-09T06:16:35.219Z)
Latitude
-0.00003°
Longitude
-179.30898°
Altitude
843.354 km
Speed
7.432 km/s
True Right ascension
23h 32m 20s
True Declination
0° 00' 00"
Sunlit
Object was in daylight at epoch
Visualization orbit readout
Latitude
Unknown
Longitude
Unknown
Altitude
Unknown
Speed
Unknown
Apparent Right ascension
Unknown
Apparent Declination
Unknown
Sunlit
N/A
Visualization observer readout
Local Sidereal Time
18:15:18
Azimuth
Unknown
Elevation
Unknown
Doppler factor
Unknown
Orbital elements
Apogee altitude
848.284 km
Perigee altitude
831.048 km
Semi-major axis
7,217.803 km
Eccentricity
0.00119
Inclination
98.8601°
RAAN
353.0865°
Arg. of periapsis
76.4808°
True anomaly
283.63656°
Mean anomaly
283.7695°
Eccentric anomaly
283.70304°
Mean motion
3.53945 °/min
Orbital period
101.71 mins
BSTAR
0.00012433
Loading maneuver chart data...
Computing Atmospheric mass density...

Documentation

Showing up to 5 results
|